Weather History for KIRK - February, 2014

Change the Weather History Date:

Friday, February 14, 2014

  Actual Average Record
Temperature  
Mean Temperature 18 °F 29 °F  
Max Temperature 28 °F 38 °F 73 °F (1954)
Min Temperature 8 °F 20 °F -4 °F (1936)
Degree Days  
Heating Degree Days 47 36  
Month to date heating degree days 770 519  
Since 1 July heating degree days 4456 4066  
Cooling Degree Days 0 0  
Month to date cooling degree days 0 0  
Year to date cooling degree days 0 0  
Moisture  
Dew Point 13 °F    
Average Humidity 74    
Maximum Humidity 91    
Minimum Humidity 57    
Precipitation  
Precipitation 0.20 in 0.05 in 0.48 in (1990)
Month to date precipitation 1.01 0.78  
Year to date precipitation 1.87 2.05  
Sea Level Pressure  
Sea Level Pressure 29.83 in    
Wind  
Wind Speed 10 mph (NNE)    
Max Wind Speed 21 mph    
Max Gust Speed 24 mph    
Visibility 6 miles    
Events Fog , Snow    
T = Trace of Precipitation, MM = Missing Value Source: NWS Daily Summary

Daily Weather History Graph

Daily Weather History Graph

Search for Another Location

Airport or City:

Trip Planner

Search our weather history database for the weather conditions in past years. The results will help you decide how hot, cold, wet, or windy it might be!

Date:

Astronomy

Feb. 14, 2014 Rise Set
Actual Time 7:04 AM CST 5:44 PM CST
Civil Twilight 6:36 AM CST 6:12 PM CST
Nautical Twilight 6:04 AM CST 6:44 PM CST
Astronomical Twilight 5:33 AM CST 7:16 PM CST
Moon 5:49 PM CST (2/14) 6:31 AM CST (2/14)
Length of Visible Light 11h 36m
Length of Day
10h 40m
Full, 100% of the Moon is Illuminated
Feb 14
Full
Feb 14
Full
Feb 22
Last Quarter
Mar 1
New
Mar 8
First Quarter

Hourly Weather History & Observations

Time (CST) Temp. Windchill Dew Point Humidity Pressure Visibility Wind Dir Wind Speed Gust Speed Precip Events Conditions
12:55 AM 25.0 °F 19.3 °F 19.0 °F 78% 29.77 in 10.0 mi NE 4.6 mph - N/A   Mostly Cloudy
1:55 AM 23.0 °F 15.8 °F 17.1 °F 78% 29.75 in 10.0 mi NE 5.8 mph - N/A   Overcast
2:55 AM 24.1 °F 17.0 °F 17.1 °F 75% 29.76 in 10.0 mi NE 5.8 mph - N/A   Overcast
3:55 AM 24.1 °F - 17.1 °F 75% 29.78 in 10.0 mi Calm Calm - N/A   Overcast
4:08 AM 24.1 °F 17.0 °F 17.1 °F 75% 29.72 in 1.8 mi ENE 5.8 mph - 0.00 in Snow Light Snow
4:17 AM 21.9 °F 10.4 °F 18.0 °F 85% 29.69 in 0.8 mi ENE 11.5 mph - 0.02 in Snow Light Snow
4:25 AM 21.9 °F 11.7 °F 18.0 °F 85% 29.68 in 1.8 mi ENE 9.2 mph - 0.05 in Snow Light Snow
4:39 AM 21.0 °F 8.6 °F 18.0 °F 88% 29.66 in 3.0 mi ENE 12.7 mph - 0.06 in Snow Light Snow
4:48 AM 21.0 °F 7.6 °F 17.1 °F 85% 29.62 in 8.0 mi ENE 15.0 mph - 0.06 in   Overcast
4:55 AM 21.0 °F 7.6 °F 17.1 °F 85% 29.65 in 9.0 mi East 15.0 mph - 0.06 in   Overcast
5:47 AM 21.0 °F 9.3 °F 17.1 °F 85% 29.70 in 9.0 mi NNE 11.5 mph - N/A   Overcast
5:55 AM 19.9 °F 7.9 °F 17.1 °F 89% 29.73 in 9.0 mi NE 11.5 mph - N/A   Overcast
6:07 AM 19.9 °F 8.6 °F 16.0 °F 85% 29.66 in 1.8 mi East 10.4 mph - 0.00 in Snow Light Snow
6:16 AM 19.9 °F 9.3 °F 17.1 °F 89% 29.66 in 3.0 mi ENE 9.2 mph - 0.01 in Snow Light Snow
6:36 AM 19.9 °F 9.3 °F 16.0 °F 85% 29.68 in 6.0 mi ENE 9.2 mph - 0.01 in   Overcast
6:48 AM 19.9 °F 11.1 °F 16.0 °F 85% 29.68 in 1.8 mi NE 6.9 mph - 0.02 in Snow Light Snow
6:55 AM 19.9 °F 11.1 °F 16.0 °F 85% 29.72 in 1.8 mi ENE 6.9 mph - 0.04 in Snow Light Snow
6:59 AM 19.9 °F 10.1 °F 16.0 °F 85% 29.68 in 2.0 mi East 8.1 mph - 0.00 in Snow Light Snow
7:06 AM 19.9 °F 10.1 °F 16.0 °F 85% 29.67 in 2.0 mi East 8.1 mph - 0.00 in Snow Light Snow
7:14 AM 19.9 °F 8.6 °F 16.0 °F 85% 29.67 in 1.8 mi ENE 10.4 mph - 0.01 in Snow Light Snow
7:38 AM 19.0 °F 3.6 °F 16.0 °F 88% 29.68 in 2.5 mi NNE 18.4 mph - 0.02 in Snow Light Snow
7:50 AM 19.4 °F 6.0 °F 15.8 °F 86% 29.70 in 1.8 mi NNE 13.8 mph - 0.02 in Snow Light Snow
7:55 AM 19.0 °F 6.8 °F 15.1 °F 85% 29.77 in 2.0 mi North 11.5 mph - 0.02 in Snow Light Snow
8:27 AM 19.0 °F 5.6 °F 15.1 °F 85% 29.76 in 1.5 mi North 13.8 mph - 0.02 in Snow Light Snow
8:49 AM 17.6 °F 3.7 °F 14.0 °F 86% 29.79 in 0.5 mi North 13.8 mph - 0.05 in Fog , Snow Snow
8:55 AM 18.0 °F 2.6 °F 14.0 °F 84% 29.82 in 0.5 mi North 17.3 mph 21.9 mph 0.05 in Fog , Snow Light Snow
8:59 AM 18.0 °F 2.6 °F 14.0 °F 84% 29.78 in 0.8 mi North 17.3 mph 21.9 mph 0.00 in Snow Light Snow
9:07 AM 18.0 °F 4.2 °F 14.0 °F 84% 29.79 in 0.5 mi North 13.8 mph - 0.01 in Fog , Snow Snow
9:24 AM 18.0 °F 3.1 °F 12.9 °F 81% 29.80 in 0.8 mi North 16.1 mph - 0.02 in Snow Light Snow
9:41 AM 18.0 °F 3.1 °F 12.9 °F 81% 29.80 in 1.0 mi North 16.1 mph - 0.02 in Snow Light Snow
9:53 AM 17.6 °F 2.7 °F 12.2 °F 79% 29.82 in 2.5 mi North 16.1 mph - 0.03 in Snow Light Snow
9:55 AM 18.0 °F 4.2 °F 12.9 °F 81% 29.87 in 2.5 mi North 13.8 mph - 0.03 in   Haze
10:04 AM 18.0 °F 5.4 °F 12.9 °F 81% 29.83 in 4.0 mi North 11.5 mph - N/A   Haze
10:55 AM 19.0 °F 5.6 °F 12.9 °F 77% 29.90 in 9.0 mi North 13.8 mph - N/A   Overcast
11:55 AM 19.0 °F 5.0 °F 12.0 °F 74% 29.91 in 8.0 mi North 15.0 mph 24.2 mph N/A   Overcast
12:55 PM 19.9 °F 7.3 °F 12.0 °F 71% 29.93 in 10.0 mi North 12.7 mph - N/A   Overcast
1:51 PM 21.2 °F 8.9 °F 12.2 °F 68% 29.89 in 10.0 mi NW 12.7 mph - N/A   Overcast
1:55 PM 21.9 °F 9.8 °F 12.9 °F 68% 29.94 in 10.0 mi NW 12.7 mph - N/A   Overcast
2:23 PM 23.0 °F 10.6 °F 12.9 °F 65% 29.90 in 10.0 mi WNW 13.8 mph - N/A   Mostly Cloudy
2:55 PM 24.1 °F 11.5 °F 12.9 °F 62% 29.96 in 10.0 mi NW 15.0 mph - N/A   Clear
3:55 PM 23.0 °F 9.6 °F 10.9 °F 60% 29.99 in 10.0 mi NNW 16.1 mph 21.9 mph N/A   Clear
4:55 PM 21.0 °F 8.6 °F 9.0 °F 60% 30.02 in 10.0 mi NNW 12.7 mph - N/A   Clear
5:55 PM 18.0 °F 6.1 °F 9.0 °F 68% 30.06 in 10.0 mi NW 10.4 mph - N/A   Clear
6:55 PM 16.0 °F 4.4 °F 6.1 °F 65% 30.10 in 10.0 mi NW 9.2 mph - N/A   Clear
7:55 PM 14.0 °F 2.0 °F 5.0 °F 67% 30.11 in 10.0 mi NW 9.2 mph - N/A   Clear
8:55 PM 12.0 °F 1.5 °F 3.9 °F 70% 30.12 in 10.0 mi NW 6.9 mph - N/A   Clear
9:55 PM 10.9 °F 0.2 °F 3.0 °F 70% 30.14 in 10.0 mi NW 6.9 mph - N/A   Clear
10:55 PM 9.0 °F -3.2 °F 1.9 °F 73% 30.17 in 10.0 mi WNW 8.1 mph - N/A   Clear
11:55 PM 8.1 °F -0.5 °F 1.9 °F 76% 30.16 in 10.0 mi NW 4.6 mph - N/A   Clear